Voltar ao catálogo

STARLINK-31591

AtivoComunicaçõesVLEO
NORAD 59207·PAYLOAD·🇺🇸 United States

Lançado Mar 11, 2024 de Vandenberg Space Force Base

Loading…

Próximas Passagens (próximas 24 horas)

TLE

AtualizadoSource: CelesTrak SupGP

Época: Sep 15, 2026, 02:04 UTC

1 59207C 24046G   26258.08659722  .00063138  00000+0  18654-2 0  2585
2 59207  53.1602 351.2805 0001087  81.4402  81.7131 15.34360327    17

Acompanhe STARLINK-31591 em tempo real com AllMySat

Download on the App Store